Time,TemperatureF,DewpointF,PressureIn,WindDirection,WindDirectionDegrees,WindSpeedMPH,WindSpeedGustMPH,Humidity,HourlyPrecipIn,Conditions,Clouds,dailyrainin,SoftwareType,DateUTC
2013-05-15 00:05:00,59.2,53.7,29.89,SW,234,0.0,1.0,82,0.00,,,0.00,Wunderground v.1.15,2013-05-15 07:05:00,
2013-05-15 00:10:00,59.2,53.7,29.89,SW,234,0.0,1.0,82,0.00,,,0.00,Wunderground v.1.15,2013-05-15 07:10:00,
2013-05-15 00:20:00,59.0,53.8,29.89,SW,234,1.0,1.0,83,0.00,,,0.00,Wunderground v.1.15,2013-05-15 07:20:00,
2013-05-15 00:25:00,59.0,53.8,29.89,SW,234,1.0,2.0,83,0.00,,,0.00,Wunderground v.1.15,2013-05-15 07:25:00,
2013-05-15 00:35:00,58.7,53.5,29.89,SW,233,1.0,1.0,83,0.00,,,0.00,Wunderground v.1.15,2013-05-15 07:35:00,
2013-05-15 00:40:00,58.7,53.5,29.89,SW,233,1.0,1.0,83,0.00,,,0.00,Wunderground v.1.15,2013-05-15 07:40:00,
2013-05-15 00:50:00,58.6,53.8,29.89,SE,137,1.0,1.0,84,0.00,,,0.00,Wunderground v.1.15,2013-05-15 07:50:00,
2013-05-15 01:05:00,58.3,53.8,29.89,SE,137,1.0,1.0,85,0.00,,,0.00,Wunderground v.1.15,2013-05-15 08:05:00,
2013-05-15 01:10:00,58.3,53.8,29.89,SE,136,1.0,1.0,85,0.00,,,0.00,Wunderground v.1.15,2013-05-15 08:10:00,
2013-05-15 01:20:00,58.1,53.6,29.89,SE,140,1.0,1.0,85,0.00,,,0.00,Wunderground v.1.15,2013-05-15 08:20:00,
2013-05-15 01:30:00,58.0,53.5,29.89,SE,140,0.0,0.0,85,0.00,,,0.00,Wunderground v.1.15,2013-05-15 08:30:00,
2013-05-15 01:35:00,58.0,53.5,29.89,SE,140,0.0,0.0,85,0.00,,,0.00,Wunderground v.1.15,2013-05-15 08:35:00,
2013-05-15 01:45:00,57.7,53.2,29.88,SE,140,0.0,0.0,85,0.00,,,0.00,Wunderground v.1.15,2013-05-15 08:45:00,
2013-05-15 01:55:00,57.5,53.0,29.88,SE,140,1.0,1.0,85,0.00,,,0.00,Wunderground v.1.15,2013-05-15 08:55:00,
2013-05-15 02:00:00,57.5,53.3,29.88,SE,140,1.0,1.0,86,0.00,,,0.00,Wunderground v.1.15,2013-05-15 09:00:00,
2013-05-15 02:10:00,57.5,53.3,29.88,SE,140,1.0,2.0,86,0.00,,,0.00,Wunderground v.1.15,2013-05-15 09:10:00,
2013-05-15 02:15:00,57.5,53.3,29.88,SE,140,2.0,2.0,86,0.00,,,0.00,Wunderground v.1.15,2013-05-15 09:15:00,
2013-05-15 02:25:00,57.7,53.5,29.88,SE,140,2.0,2.0,86,0.00,,,0.00,Wunderground v.1.15,2013-05-15 09:25:00,
2013-05-15 02:30:00,57.7,53.5,29.88,SE,140,2.0,2.0,86,0.00,,,0.00,Wunderground v.1.15,2013-05-15 09:30:00,
2013-05-15 02:40:00,57.8,53.6,29.88,East,99,2.0,3.0,86,0.00,,,0.00,Wunderground v.1.15,2013-05-15 09:40:00,
2013-05-15 02:45:00,58.0,53.8,29.88,East,93,2.0,3.0,86,0.00,,,0.00,Wunderground v.1.15,2013-05-15 09:45:00,
2013-05-15 02:55:00,57.8,53.3,29.88,SE,137,1.0,3.0,85,0.00,,,0.00,Wunderground v.1.15,2013-05-15 09:55:00,
2013-05-15 03:00:00,57.8,53.3,29.88,SE,137,2.0,2.0,85,0.00,,,0.00,Wunderground v.1.15,2013-05-15 10:00:00,
2013-05-15 03:10:00,58.3,53.8,29.88,SSE,148,2.0,2.0,85,0.00,,,0.00,Wunderground v.1.15,2013-05-15 10:10:00,
2013-05-15 03:15:00,58.4,53.6,29.88,ESE,109,2.0,2.0,84,0.00,,,0.00,Wunderground v.1.15,2013-05-15 10:15:00,
2013-05-15 03:25:00,58.9,53.7,29.88,East,96,2.0,2.0,83,0.00,,,0.00,Wunderground v.1.15,2013-05-15 10:25:00,
2013-05-15 03:35:00,59.2,54.0,29.88,East,97,1.0,1.0,83,0.00,,,0.00,Wunderground v.1.15,2013-05-15 10:35:00,
2013-05-15 03:40:00,59.2,53.7,29.88,East,97,1.0,1.0,82,0.00,,,0.00,Wunderground v.1.15,2013-05-15 10:40:00,
2013-05-15 03:46:00,59.4,53.9,29.88,East,97,1.0,1.0,82,0.00,,,0.00,Wunderground v.1.15,2013-05-15 10:46:00,
2013-05-15 03:50:00,59.5,54.0,29.88,ESE,106,1.0,2.0,82,0.00,,,0.00,Wunderground v.1.15,2013-05-15 10:50:00,
2013-05-15 04:00:00,59.7,54.2,29.88,East,100,1.0,1.0,82,0.00,,,0.00,Wunderground v.1.15,2013-05-15 11:00:00,
2013-05-15 04:15:00,59.8,54.0,29.88,SSE,152,3.0,3.0,81,0.00,,,0.00,Wunderground v.1.15,2013-05-15 11:15:00,
2013-05-15 04:20:00,59.8,54.0,29.88,ESE,113,2.0,3.0,81,0.00,,,0.00,Wunderground v.1.15,2013-05-15 11:20:00,
2013-05-15 04:26:00,59.8,54.0,29.88,SE,133,3.0,3.0,81,0.00,,,0.00,Wunderground v.1.15,2013-05-15 11:26:00,
2013-05-15 04:35:00,59.8,53.6,29.88,SSE,161,4.0,6.0,80,0.00,,,0.00,Wunderground v.1.15,2013-05-15 11:35:00,
2013-05-15 04:50:00,59.8,53.3,29.88,SSE,151,4.0,4.0,79,0.00,,,0.00,Wunderground v.1.15,2013-05-15 11:50:00,
2013-05-15 04:55:00,59.8,53.3,29.88,ESE,103,4.0,5.0,79,0.00,,,0.00,Wunderground v.1.15,2013-05-15 11:55:00,
2013-05-15 05:05:00,59.8,52.9,29.88,SE,128,4.0,7.0,78,0.00,,,0.00,Wunderground v.1.15,2013-05-15 12:05:00,
2013-05-15 05:10:00,59.8,52.9,29.88,SSE,148,4.0,7.0,78,0.00,,,0.00,Wunderground v.1.15,2013-05-15 12:10:00,
2013-05-15 05:20:00,59.8,52.9,29.88,ESE,119,4.0,4.0,78,0.00,,,0.00,Wunderground v.1.15,2013-05-15 12:20:00,
2013-05-15 05:31:00,59.7,52.8,29.88,SSE,160,5.0,6.0,78,0.00,,,0.00,Wunderground v.1.15,2013-05-15 12:31:00,
2013-05-15 05:35:00,59.7,52.8,29.88,SE,124,6.0,6.0,78,0.00,,,0.00,Wunderground v.1.15,2013-05-15 12:35:00,
2013-05-15 05:55:00,60.0,52.8,29.88,ESE,109,4.0,8.0,77,0.00,,,0.00,Wunderground v.1.15,2013-05-15 12:55:00,
2013-05-15 06:00:00,60.0,52.4,29.89,ESE,104,4.0,5.0,76,0.00,,,0.00,Wunderground v.1.15,2013-05-15 13:00:00,
2013-05-15 06:05:00,60.0,52.4,29.89,ESE,107,5.0,7.0,76,0.00,,,0.00,Wunderground v.1.15,2013-05-15 13:05:00,
2013-05-15 06:15:00,60.1,52.5,29.89,ESE,103,4.0,5.0,76,0.00,,,0.00,Wunderground v.1.15,2013-05-15 13:15:00,
2013-05-15 06:20:00,60.1,52.1,29.89,East,100,4.0,5.0,75,0.00,,,0.00,Wunderground v.1.15,2013-05-15 13:20:00,
2013-05-15 06:30:00,60.3,52.3,29.90,ENE,71,4.0,4.0,75,0.00,,,0.00,Wunderground v.1.15,2013-05-15 13:30:00,
2013-05-15 06:35:00,60.3,52.3,29.90,East,88,4.0,4.0,75,0.00,,,0.00,Wunderground v.1.15,2013-05-15 13:35:00,
2013-05-15 06:55:00,60.5,52.2,29.90,East,99,4.0,4.0,74,0.00,,,0.00,Wunderground v.1.15,2013-05-15 13:55:00,
2013-05-15 07:25:00,60.9,52.2,29.91,ESE,114,4.0,6.0,73,0.00,,,0.00,Wunderground v.1.15,2013-05-15 14:25:00,
2013-05-15 07:30:00,60.9,52.2,29.92,East,96,4.0,6.0,73,0.00,,,0.00,Wunderground v.1.15,2013-05-15 14:30:00,
2013-05-15 07:35:00,60.9,52.2,29.92,East,79,4.0,6.0,73,0.00,,,0.00,Wunderground v.1.15,2013-05-15 14:35:00,
2013-05-15 07:45:00,61.2,52.1,29.91,East,83,4.0,4.0,72,0.00,,,0.00,Wunderground v.1.15,2013-05-15 14:45:00,
2013-05-15 07:50:00,61.2,52.1,29.91,SE,128,5.0,5.0,72,0.00,,,0.00,Wunderground v.1.15,2013-05-15 14:50:00,
2013-05-15 08:00:00,61.7,52.2,29.92,ESE,109,4.0,4.0,71,0.00,,,0.00,Wunderground v.1.15,2013-05-15 15:00:00,
2013-05-15 08:05:00,61.9,52.0,29.92,SSE,148,5.0,7.0,70,0.00,,,0.00,Wunderground v.1.15,2013-05-15 15:05:00,
2013-05-15 08:15:00,62.2,52.3,29.92,ESE,112,5.0,5.0,70,0.00,,,0.00,Wunderground v.1.15,2013-05-15 15:15:00,
2013-05-15 08:20:00,62.4,52.5,29.92,ESE,107,4.0,5.0,70,0.00,,,0.00,Wunderground v.1.15,2013-05-15 15:20:00,
2013-05-15 08:30:00,62.8,53.3,29.92,SE,133,3.0,6.0,71,0.00,,,0.00,Wunderground v.1.15,2013-05-15 15:30:00,
2013-05-15 08:35:00,62.8,53.3,29.92,South,174,4.0,6.0,71,0.00,,,0.00,Wunderground v.1.15,2013-05-15 15:35:00,
2013-05-15 08:50:00,63.0,53.1,29.92,SE,140,4.0,4.0,70,0.00,,,0.00,Wunderground v.1.15,2013-05-15 15:50:00,
2013-05-15 08:55:00,63.0,53.1,29.92,SSE,148,4.0,4.0,70,0.00,,,0.00,Wunderground v.1.15,2013-05-15 15:55:00,
2013-05-15 09:06:00,63.5,53.5,29.93,South,185,5.0,5.0,70,0.00,,,0.00,Wunderground v.1.15,2013-05-15 16:06:00,
2013-05-15 09:10:00,63.7,53.7,29.93,South,188,5.0,6.0,70,0.00,,,0.00,Wunderground v.1.15,2013-05-15 16:10:00,
2013-05-15 09:15:00,64.1,53.7,29.93,SSE,160,5.0,6.0,69,0.00,,,0.00,Wunderground v.1.15,2013-05-15 16:15:00,
2013-05-15 09:25:00,64.3,53.5,29.93,South,186,4.0,5.0,68,0.00,,,0.00,Wunderground v.1.15,2013-05-15 16:25:00,
2013-05-15 09:35:00,64.0,53.6,29.93,SSE,164,5.0,6.0,69,0.00,,,0.00,Wunderground v.1.15,2013-05-15 16:35:00,
2013-05-15 09:45:00,64.3,53.5,29.93,SSE,165,5.0,6.0,68,0.00,,,0.00,Wunderground v.1.15,2013-05-15 16:45:00,
2013-05-15 10:00:00,64.5,53.3,29.93,SSW,198,6.0,6.0,67,0.00,,,0.00,Wunderground v.1.15,2013-05-15 17:00:00,
2013-05-15 10:10:00,64.6,53.4,29.93,South,182,6.0,6.0,67,0.00,,,0.00,Wunderground v.1.15,2013-05-15 17:10:00,
2013-05-15 10:20:00,64.8,52.8,29.93,SSW,199,5.0,5.0,65,0.00,,,0.00,Wunderground v.1.15,2013-05-15 17:20:00,
2013-05-15 10:25:00,64.6,53.0,29.93,SSW,196,6.0,9.0,66,0.00,,,0.00,Wunderground v.1.15,2013-05-15 17:25:00,
2013-05-15 10:36:00,65.1,53.0,29.93,SSE,160,5.0,5.0,65,0.00,,,0.00,Wunderground v.1.15,2013-05-15 17:36:00,
2013-05-15 10:45:00,65.4,53.3,29.93,South,185,6.0,8.0,65,0.00,,,0.00,Wunderground v.1.15,2013-05-15 17:45:00,
2013-05-15 11:16:00,65.6,53.1,29.93,SW,232,5.0,5.0,64,0.00,,,0.00,Wunderground v.1.15,2013-05-15 18:16:00,
2013-05-15 11:20:00,65.8,52.9,29.93,SW,230,6.0,6.0,63,0.00,,,0.00,Wunderground v.1.15,2013-05-15 18:20:00,
2013-05-15 11:25:00,66.4,53.8,29.93,South,169,6.0,6.0,64,0.00,,,0.00,Wunderground v.1.15,2013-05-15 18:25:00,
2013-05-15 11:35:00,67.3,53.4,29.94,SW,215,6.0,7.0,61,0.00,,,0.00,Wunderground v.1.15,2013-05-15 18:35:00,
2013-05-15 11:40:00,66.9,53.5,29.94,SSE,155,6.0,7.0,62,0.00,,,0.00,Wunderground v.1.15,2013-05-15 18:40:00,
2013-05-15 11:50:00,67.4,53.5,29.94,South,189,5.0,7.0,61,0.00,,,0.00,Wunderground v.1.15,2013-05-15 18:50:00,
2013-05-15 11:55:00,68.1,53.7,29.94,SSE,164,5.0,7.0,60,0.00,,,0.00,Wunderground v.1.15,2013-05-15 18:55:00,
2013-05-15 12:05:00,68.8,54.3,29.93,SSW,210,5.0,5.0,60,0.00,,,0.00,Wunderground v.1.15,2013-05-15 19:05:00,
2013-05-15 12:20:00,67.8,53.9,29.93,SSE,160,5.0,8.0,61,0.00,,,0.00,Wunderground v.1.15,2013-05-15 19:20:00,
2013-05-15 12:25:00,68.1,54.1,29.93,South,178,5.0,8.0,61,0.00,,,0.00,Wunderground v.1.15,2013-05-15 19:25:00,
2013-05-15 12:30:00,68.4,54.0,29.93,South,176,5.0,8.0,60,0.00,,,0.00,Wunderground v.1.15,2013-05-15 19:30:00,
2013-05-15 12:35:00,67.9,54.0,29.92,WSW,240,6.0,8.0,61,0.00,,,0.00,Wunderground v.1.15,2013-05-15 19:35:00,
2013-05-15 12:40:00,68.3,54.3,29.92,SW,232,6.0,6.0,61,0.00,,,0.00,Wunderground v.1.15,2013-05-15 19:40:00,
2013-05-15 12:50:00,68.1,54.1,29.92,WSW,256,5.0,5.0,61,0.00,,,0.00,Wunderground v.1.15,2013-05-15 19:50:00,
2013-05-15 13:00:00,68.8,54.8,29.92,SSW,203,5.0,7.0,61,0.00,,,0.00,Wunderground v.1.15,2013-05-15 20:00:00,
2013-05-15 13:05:00,67.8,54.7,29.92,SSE,168,5.0,7.0,63,0.00,,,0.00,Wunderground v.1.15,2013-05-15 20:05:00,
2013-05-15 13:15:00,68.8,54.8,29.91,South,185,6.0,6.0,61,0.00,,,0.00,Wunderground v.1.15,2013-05-15 20:15:00,
2013-05-15 13:25:00,67.6,55.0,29.91,WSW,241,6.0,6.0,64,0.00,,,0.00,Wunderground v.1.15,2013-05-15 20:25:00,
2013-05-15 13:35:00,68.4,55.3,29.91,SSW,192,5.0,7.0,63,0.00,,,0.00,Wunderground v.1.15,2013-05-15 20:35:00,
2013-05-15 13:40:00,68.8,55.2,29.91,SW,219,6.0,7.0,62,0.00,,,0.00,Wunderground v.1.15,2013-05-15 20:40:00,
2013-05-15 13:50:00,68.3,55.2,29.91,SW,234,6.0,7.0,63,0.00,,,0.00,Wunderground v.1.15,2013-05-15 20:50:00,
2013-05-15 13:55:00,67.9,55.3,29.91,South,189,6.0,7.0,64,0.00,,,0.00,Wunderground v.1.15,2013-05-15 20:55:00,
2013-05-15 14:05:00,67.6,54.6,29.90,SSW,202,7.0,7.0,63,0.00,,,0.00,Wunderground v.1.15,2013-05-15 21:05:00,
2013-05-15 14:10:00,68.1,55.9,29.90,South,182,6.0,7.0,65,0.00,,,0.00,Wunderground v.1.15,2013-05-15 21:10:00,
2013-05-15 14:20:00,68.9,55.3,29.90,SSE,155,6.0,7.0,62,0.00,,,0.00,Wunderground v.1.15,2013-05-15 21:20:00,
2013-05-15 14:25:00,68.3,55.2,29.90,SSW,192,7.0,7.0,63,0.00,,,0.00,Wunderground v.1.15,2013-05-15 21:25:00,
2013-05-15 14:40:00,67.3,55.5,29.90,South,182,7.0,10.0,66,0.00,,,0.00,Wunderground v.1.15,2013-05-15 21:40:00,
2013-05-15 14:55:00,67.9,55.3,29.89,SW,230,6.0,8.0,64,0.00,,,0.00,Wunderground v.1.15,2013-05-15 21:55:00,
2013-05-15 15:10:00,67.3,55.1,29.89,SW,226,7.0,7.0,65,0.00,,,0.00,Wunderground v.1.15,2013-05-15 22:10:00,
2013-05-15 15:25:00,67.6,55.4,29.88,South,169,6.0,6.0,65,0.00,,,0.00,Wunderground v.1.15,2013-05-15 22:25:00,
2013-05-15 15:30:00,67.8,55.2,29.88,WSW,254,7.0,11.0,64,0.00,,,0.00,Wunderground v.1.15,2013-05-15 22:30:00,
2013-05-15 15:35:00,67.1,54.9,29.88,SSW,202,7.0,8.0,65,0.00,,,0.00,Wunderground v.1.15,2013-05-15 22:35:00,
2013-05-15 15:45:00,68.1,55.0,29.87,SW,234,5.0,7.0,63,0.00,,,0.00,Wunderground v.1.15,2013-05-15 22:45:00,
2013-05-15 15:50:00,68.4,54.9,29.87,SSW,199,5.0,7.0,62,0.00,,,0.00,Wunderground v.1.15,2013-05-15 22:50:00,
2013-05-15 16:05:00,67.8,55.2,29.87,SSE,155,6.0,7.0,64,0.00,,,0.00,Wunderground v.1.15,2013-05-15 23:05:00,
2013-05-15 16:15:00,67.3,55.1,29.87,SSW,209,6.0,10.0,65,0.00,,,0.00,Wunderground v.1.15,2013-05-15 23:15:00,
2013-05-15 16:25:00,67.3,55.1,29.87,SW,229,6.0,6.0,65,0.00,,,0.00,Wunderground v.1.15,2013-05-15 23:25:00,
2013-05-15 16:35:00,67.3,54.7,29.87,WSW,239,5.0,6.0,64,0.00,,,0.00,Wunderground v.1.15,2013-05-15 23:35:00,
2013-05-15 16:50:00,66.9,54.7,29.86,SSW,209,7.0,7.0,65,0.00,,,0.00,Wunderground v.1.15,2013-05-15 23:50:00,
2013-05-15 17:00:00,66.9,53.5,29.86,SW,227,6.0,8.0,62,0.00,,,0.00,Wunderground v.1.15,2013-05-16 00:00:00,
2013-05-15 17:05:00,66.6,54.0,29.86,SW,230,8.0,8.0,64,0.00,,,0.00,Wunderground v.1.15,2013-05-16 00:05:00,
2013-05-15 17:10:00,66.6,54.0,29.86,SW,233,7.0,7.0,64,0.00,,,0.00,Wunderground v.1.15,2013-05-16 00:10:00,
2013-05-15 17:15:00,66.9,54.3,29.86,South,172,6.0,7.0,64,0.00,,,0.00,Wunderground v.1.15,2013-05-16 00:15:00,
2013-05-15 17:25:00,66.8,54.7,29.86,South,182,6.0,6.0,65,0.00,,,0.00,Wunderground v.1.15,2013-05-16 00:25:00,
2013-05-15 17:35:00,66.6,54.5,29.86,SW,220,6.0,6.0,65,0.00,,,0.00,Wunderground v.1.15,2013-05-16 00:35:00,
2013-05-15 17:45:00,66.9,54.7,29.85,SSW,212,6.0,6.0,65,0.00,,,0.00,Wunderground v.1.15,2013-05-16 00:45:00,
2013-05-15 17:50:00,67.1,54.5,29.85,SW,219,5.0,6.0,64,0.00,,,0.00,Wunderground v.1.15,2013-05-16 00:50:00,
2013-05-15 18:01:00,66.4,54.3,29.85,South,182,5.0,5.0,65,0.00,,,0.00,Wunderground v.1.15,2013-05-16 01:01:00,
2013-05-15 18:10:00,65.8,54.5,29.85,SSW,206,6.0,10.0,67,0.00,,,0.00,Wunderground v.1.15,2013-05-16 01:10:00,
2013-05-15 18:20:00,65.4,54.2,29.84,South,186,5.0,6.0,67,0.00,,,0.00,Wunderground v.1.15,2013-05-16 01:20:00,
2013-05-15 18:35:00,64.9,54.1,29.84,South,172,6.0,6.0,68,0.00,,,0.00,Wunderground v.1.15,2013-05-16 01:35:00,
2013-05-15 18:40:00,64.8,54.4,29.84,SW,220,5.0,8.0,69,0.00,,,0.00,Wunderground v.1.15,2013-05-16 01:40:00,
2013-05-15 18:50:00,64.9,55.3,29.84,SSW,198,4.0,4.0,71,0.00,,,0.00,Wunderground v.1.15,2013-05-16 01:50:00,
2013-05-15 19:00:00,64.6,55.4,29.84,South,175,4.0,6.0,72,0.00,,,0.00,Wunderground v.1.15,2013-05-16 02:00:00,
2013-05-15 19:05:00,64.5,55.3,29.84,SSE,167,4.0,6.0,72,0.00,,,0.00,Wunderground v.1.15,2013-05-16 02:05:00,
2013-05-15 19:10:00,64.1,54.9,29.84,SE,144,4.0,5.0,72,0.00,,,0.00,Wunderground v.1.15,2013-05-16 02:10:00,
2013-05-15 19:20:00,63.3,54.5,29.84,SE,144,5.0,6.0,73,0.00,,,0.00,Wunderground v.1.15,2013-05-16 02:20:00,
2013-05-15 19:25:00,63.0,54.6,29.84,SSE,154,5.0,6.0,74,0.00,,,0.00,Wunderground v.1.15,2013-05-16 02:25:00,
2013-05-15 19:30:00,62.8,54.4,29.84,South,171,4.0,4.0,74,0.00,,,0.00,Wunderground v.1.15,2013-05-16 02:30:00,
2013-05-15 19:35:00,62.7,54.7,29.84,SSE,161,4.0,4.0,75,0.00,,,0.00,Wunderground v.1.15,2013-05-16 02:35:00,
2013-05-15 19:50:00,62.4,55.1,29.84,SSE,147,4.0,4.0,77,0.00,,,0.00,Wunderground v.1.15,2013-05-16 02:50:00,
2013-05-15 19:55:00,62.2,55.3,29.84,SSE,151,4.0,4.0,78,0.00,,,0.00,Wunderground v.1.15,2013-05-16 02:55:00,
2013-05-15 20:00:00,62.2,55.3,29.84,SSE,155,3.0,3.0,78,0.00,,,0.00,Wunderground v.1.15,2013-05-16 03:00:00,
2013-05-15 20:20:00,62.2,55.3,29.85,SSE,162,2.0,2.0,78,0.00,,,0.00,Wunderground v.1.15,2013-05-16 03:20:00,
2013-05-15 20:25:00,62.2,55.3,29.85,SSE,158,2.0,2.0,78,0.00,,,0.00,Wunderground v.1.15,2013-05-16 03:25:00,
2013-05-15 20:30:00,62.0,55.1,29.85,SE,145,2.0,2.0,78,0.00,,,0.00,Wunderground v.1.15,2013-05-16 03:30:00,
2013-05-15 20:35:00,62.0,55.1,29.85,SSE,164,3.0,3.0,78,0.00,,,0.00,Wunderground v.1.15,2013-05-16 03:35:00,
2013-05-15 20:40:00,61.9,55.0,29.85,South,181,2.0,2.0,78,0.00,,,0.00,Wunderground v.1.15,2013-05-16 03:40:00,
2013-05-15 20:50:00,61.9,55.3,29.86,SSE,158,2.0,5.0,79,0.00,,,0.00,Wunderground v.1.15,2013-05-16 03:50:00,
2013-05-15 21:00:00,61.7,55.1,29.86,SSE,155,2.0,2.0,79,0.00,,,0.00,Wunderground v.1.15,2013-05-16 04:00:00,
2013-05-15 21:05:00,61.6,55.0,29.86,South,182,3.0,3.0,79,0.00,,,0.00,Wunderground v.1.15,2013-05-16 04:05:00,
2013-05-15 21:30:00,61.1,54.5,29.87,SSE,165,2.0,5.0,79,0.00,,,0.00,Wunderground v.1.15,2013-05-16 04:30:00,
2013-05-15 21:35:00,60.9,54.3,29.87,SSW,198,4.0,5.0,79,0.00,,,0.00,Wunderground v.1.15,2013-05-16 04:35:00,
2013-05-15 21:45:00,60.6,54.4,29.87,South,185,5.0,6.0,80,0.00,,,0.00,Wunderground v.1.15,2013-05-16 04:45:00,
2013-05-15 21:56:00,60.3,54.1,29.87,SSE,160,4.0,6.0,80,0.00,,,0.00,Wunderground v.1.15,2013-05-16 04:56:00,
2013-05-15 22:05:00,60.1,54.2,29.87,SSE,168,4.0,5.0,81,0.00,,,0.00,Wunderground v.1.15,2013-05-16 05:05:00,
2013-05-15 22:15:00,60.0,54.2,29.87,South,186,3.0,3.0,81,0.00,,,0.00,Wunderground v.1.15,2013-05-16 05:15:00,
2013-05-15 22:20:00,60.0,54.2,29.87,South,176,2.0,4.0,81,0.00,,,0.00,Wunderground v.1.15,2013-05-16 05:20:00,
2013-05-15 22:35:00,59.8,54.3,29.87,SW,224,2.0,3.0,82,0.00,,,0.00,Wunderground v.1.15,2013-05-16 05:35:00,
2013-05-15 22:40:00,59.8,54.3,29.87,South,178,2.0,3.0,82,0.00,,,0.00,Wunderground v.1.15,2013-05-16 05:40:00,
2013-05-15 22:51:00,59.7,54.2,29.87,South,188,2.0,3.0,82,0.00,,,0.00,Wunderground v.1.15,2013-05-16 05:51:00,
2013-05-15 22:55:00,59.7,54.2,29.87,SW,215,2.0,3.0,82,0.00,,,0.00,Wunderground v.1.15,2013-05-16 05:55:00,
2013-05-15 23:00:00,59.7,54.2,29.87,SW,215,2.0,2.0,82,0.00,,,0.00,Wunderground v.1.15,2013-05-16 06:00:00,
2013-05-15 23:15:00,59.4,53.9,29.87,SSW,202,2.0,2.0,82,0.00,,,0.00,Wunderground v.1.15,2013-05-16 06:15:00,
2013-05-15 23:20:00,59.4,54.2,29.87,SSW,200,2.0,2.0,83,0.00,,,0.00,Wunderground v.1.15,2013-05-16 06:20:00,
2013-05-15 23:35:00,59.4,54.2,29.87,South,181,1.0,1.0,83,0.00,,,0.00,Wunderground v.1.15,2013-05-16 06:35:00,
2013-05-15 23:45:00,59.4,54.2,29.87,SSW,212,2.0,3.0,83,0.00,,,0.00,Wunderground v.1.15,2013-05-16 06:45:00,
2013-05-15 23:50:00,59.5,54.3,29.87,SSW,203,2.0,3.0,83,0.00,,,0.00,Wunderground v.1.15,2013-05-16 06:50:00,